Time,TemperatureF,DewpointF,PressureIn,WindDirection,WindDirectionDegrees,WindSpeedMPH,WindSpeedGustMPH,Humidity,HourlyPrecipIn,Conditions,Clouds,dailyrainin,SoftwareType,DateUTC
2013-02-20 00:00:00,30.0,3.1,29.83,SSW,210,6.3,9.6,31,0.00,,---,0.16,VWS V14.01,2013-02-20 05:00:00,
2013-02-20 00:02:00,30.0,3.1,29.83,SSW,209,4.0,5.4,31,0.00,,---,0.00,VWS V14.01,2013-02-20 05:02:00,
2013-02-20 00:07:00,29.8,2.9,29.83,SSW,210,4.9,8.1,31,0.00,,---,0.00,VWS V14.01,2013-02-20 05:07:00,
2013-02-20 00:12:00,29.7,2.7,29.83,SSW,205,12.3,12.3,31,0.00,,---,0.00,VWS V14.01,2013-02-20 05:12:00,
2013-02-20 00:17:00,29.5,2.6,29.83,ESE,102,0.0,3.6,31,0.00,,---,0.00,VWS V14.01,2013-02-20 05:17:00,
2013-02-20 00:22:00,29.5,2.6,29.83,SSW,194,3.1,5.8,31,0.00,,---,0.00,VWS V14.01,2013-02-20 05:22:00,
2013-02-20 00:27:00,29.3,2.4,29.83,SW,231,5.8,6.3,31,0.00,,---,0.00,VWS V14.01,2013-02-20 05:27:00,
2013-02-20 00:32:00,28.9,2.1,29.83,SW,233,5.8,6.7,31,0.00,,---,0.00,VWS V14.01,2013-02-20 05:32:00,
2013-02-20 00:37:00,28.8,2.0,29.83,East,93,2.7,7.6,31,0.00,,---,0.00,VWS V14.01,2013-02-20 05:37:00,
2013-02-20 00:42:00,28.8,2.0,29.83,SW,226,3.6,3.6,31,0.00,,---,0.00,VWS V14.01,2013-02-20 05:42:00,
2013-02-20 00:47:00,28.4,2.3,29.83,South,191,4.0,4.0,32,0.00,,---,0.00,VWS V14.01,2013-02-20 05:47:00,
2013-02-20 00:52:00,28.4,2.3,29.83,SSW,213,4.0,10.1,32,0.00,,---,0.00,VWS V14.01,2013-02-20 05:52:00,
2013-02-20 00:57:00,28.6,1.8,29.83,SW,231,6.3,6.3,31,0.00,,---,0.00,VWS V14.01,2013-02-20 05:57:00,
2013-02-20 01:02:00,28.4,2.3,29.83,South,176,4.9,7.6,32,0.00,,---,0.00,VWS V14.01,2013-02-20 06:02:00,
2013-02-20 01:07:00,28.2,1.5,29.83,WSW,240,5.8,8.3,31,0.00,,---,0.00,VWS V14.01,2013-02-20 06:07:00,
2013-02-20 01:12:00,28.2,1.5,29.83,SSW,203,4.9,10.1,31,0.00,,---,0.00,VWS V14.01,2013-02-20 06:12:00,
2013-02-20 01:17:00,28.0,1.3,29.83,SSW,209,8.3,8.3,31,0.00,,---,0.00,VWS V14.01,2013-02-20 06:17:00,
2013-02-20 01:22:00,27.9,1.2,29.83,South,191,4.9,4.9,31,0.00,,---,0.00,VWS V14.01,2013-02-20 06:22:00,
2013-02-20 01:27:00,27.9,1.2,29.83,SSW,213,6.7,6.7,31,0.00,,---,0.00,VWS V14.01,2013-02-20 06:27:00,
2013-02-20 01:33:00,27.7,1.0,29.83,SSW,202,4.0,6.3,31,0.00,,---,0.00,VWS V14.01,2013-02-20 06:33:00,
2013-02-20 01:38:00,27.5,0.8,29.83,SSW,198,3.1,4.9,31,0.00,,---,0.00,VWS V14.01,2013-02-20 06:38:00,
2013-02-20 01:43:00,27.5,0.8,29.83,SW,216,6.7,8.7,31,0.00,,---,0.00,VWS V14.01,2013-02-20 06:43:00,
2013-02-20 01:48:00,27.3,0.7,29.83,SSW,199,8.3,8.3,31,0.00,,---,0.00,VWS V14.01,2013-02-20 06:48:00,
2013-02-20 01:53:00,27.1,0.5,29.83,SSW,210,10.1,10.1,31,0.00,,---,0.00,VWS V14.01,2013-02-20 06:53:00,
2013-02-20 01:58:00,27.1,0.5,29.83,SSW,210,5.8,5.8,31,0.00,,---,0.00,VWS V14.01,2013-02-20 06:58:00,
2013-02-20 02:03:00,27.0,0.4,29.83,SW,222,5.8,5.8,31,0.00,,---,0.00,VWS V14.01,2013-02-20 07:03:00,
2013-02-20 02:08:00,26.8,0.2,29.83,South,191,5.8,8.7,31,0.00,,---,0.00,VWS V14.01,2013-02-20 07:08:00,
2013-02-20 02:13:00,26.8,0.2,29.83,East,84,2.2,2.7,31,0.00,,---,0.00,VWS V14.01,2013-02-20 07:13:00,
2013-02-20 02:18:00,26.4,0.6,29.83,SW,216,5.8,5.8,32,0.00,,---,0.00,VWS V14.01,2013-02-20 07:18:00,
2013-02-20 02:23:00,26.4,0.6,29.83,SSW,202,8.1,8.1,32,0.00,,---,0.00,VWS V14.01,2013-02-20 07:23:00,
2013-02-20 02:28:00,26.2,0.4,29.83,East,83,3.6,3.6,32,0.00,,---,0.00,VWS V14.01,2013-02-20 07:28:00,
2013-02-20 02:33:00,26.2,0.4,29.83,SW,217,2.7,5.8,32,0.00,,---,0.00,VWS V14.01,2013-02-20 07:33:00,
2013-02-20 02:38:00,26.1,0.2,29.83,SSW,202,2.7,4.0,32,0.00,,---,0.00,VWS V14.01,2013-02-20 07:38:00,
2013-02-20 02:43:00,25.9,0.1,29.83,SW,221,10.1,10.1,32,0.00,,---,0.00,VWS V14.01,2013-02-20 07:43:00,
2013-02-20 02:48:00,26.1,0.2,29.83,WSW,237,4.0,8.7,32,0.00,,---,0.00,VWS V14.01,2013-02-20 07:48:00,
2013-02-20 02:53:00,25.9,0.1,29.83,WSW,255,4.9,8.1,32,0.00,,---,0.00,VWS V14.01,2013-02-20 07:53:00,
2013-02-20 02:58:00,25.7,-0.1,29.83,SSW,192,4.0,4.0,32,0.00,,---,0.00,VWS V14.01,2013-02-20 07:58:00,
2013-02-20 03:05:00,25.5,-0.2,29.83,SW,229,8.3,8.3,32,0.00,,---,0.00,VWS V14.01,2013-02-20 08:05:00,
2013-02-20 03:10:00,25.5,-0.2,29.83,SW,236,3.1,5.4,32,0.00,,---,0.00,VWS V14.01,2013-02-20 08:10:00,
2013-02-20 03:15:00,25.5,-0.2,29.83,SW,218,8.1,11.0,32,0.00,,---,0.00,VWS V14.01,2013-02-20 08:15:00,
2013-02-20 03:20:00,25.3,-0.4,29.83,SW,219,10.1,10.1,32,0.00,,---,0.00,VWS V14.01,2013-02-20 08:20:00,
2013-02-20 03:25:00,25.3,-0.4,29.83,SW,226,5.4,5.4,32,0.00,,---,0.00,VWS V14.01,2013-02-20 08:25:00,
2013-02-20 03:30:00,25.2,-0.5,29.83,SW,227,4.0,7.6,32,0.00,,---,0.00,VWS V14.01,2013-02-20 08:30:00,
2013-02-20 03:35:00,25.2,-0.5,29.83,NW,312,2.2,8.1,32,0.00,,---,0.00,VWS V14.01,2013-02-20 08:35:00,
2013-02-20 03:40:00,25.0,-0.7,29.83,WSW,240,5.4,5.4,32,0.00,,---,0.00,VWS V14.01,2013-02-20 08:40:00,
2013-02-20 03:45:00,24.8,-0.2,29.86,South,187,3.6,5.8,33,0.00,,---,0.00,VWS V14.01,2013-02-20 08:45:00,
2013-02-20 03:50:00,24.6,-0.4,29.86,East,96,3.6,3.6,33,0.00,,---,0.00,VWS V14.01,2013-02-20 08:50:00,
2013-02-20 03:55:00,24.4,-0.5,29.86,South,172,3.1,3.1,33,0.00,,---,0.00,VWS V14.01,2013-02-20 08:55:00,
2013-02-20 04:00:00,24.4,-0.5,29.86,ESE,106,5.8,5.8,33,0.00,,---,0.00,VWS V14.01,2013-02-20 09:00:00,
2013-02-20 04:05:00,24.4,-0.5,29.86,WSW,251,5.8,8.1,33,0.00,,---,0.00,VWS V14.01,2013-02-20 09:05:00,
2013-02-20 04:10:00,24.3,-0.7,29.86,SSE,162,5.4,5.8,33,0.00,,---,0.00,VWS V14.01,2013-02-20 09:10:00,
2013-02-20 04:15:00,24.1,-0.9,29.86,SSE,156,3.1,5.4,33,0.00,,---,0.00,VWS V14.01,2013-02-20 09:15:00,
2013-02-20 04:20:00,23.9,-1.0,29.86,South,180,4.9,7.6,33,0.00,,---,0.00,VWS V14.01,2013-02-20 09:20:00,
2013-02-20 04:25:00,23.9,-1.0,29.86,SSW,211,7.2,8.7,33,0.00,,---,0.00,VWS V14.01,2013-02-20 09:25:00,
2013-02-20 04:31:00,23.7,-1.2,29.86,SSW,199,4.0,4.0,33,0.00,,---,0.00,VWS V14.01,2013-02-20 09:31:00,
2013-02-20 04:36:00,23.5,-1.3,29.86,SW,231,3.1,4.9,33,0.00,,---,0.00,VWS V14.01,2013-02-20 09:36:00,
2013-02-20 04:41:00,23.5,-0.7,29.83,SW,224,3.1,4.0,34,0.00,,---,0.00,VWS V14.01,2013-02-20 09:41:00,
2013-02-20 04:46:00,23.4,-0.9,29.83,SSW,205,7.6,7.6,34,0.00,,---,0.00,VWS V14.01,2013-02-20 09:46:00,
2013-02-20 04:51:00,23.4,-0.9,29.83,SW,221,3.6,8.1,34,0.00,,---,0.00,VWS V14.01,2013-02-20 09:51:00,
2013-02-20 04:56:00,23.2,-1.0,29.86,WSW,239,6.3,6.3,34,0.00,,---,0.00,VWS V14.01,2013-02-20 09:56:00,
2013-02-20 05:01:00,23.2,-1.0,29.86,SSW,208,3.1,6.3,34,0.00,,---,0.00,VWS V14.01,2013-02-20 10:01:00,
2013-02-20 05:06:00,23.0,-1.2,29.86,West,275,4.0,6.3,34,0.00,,---,0.00,VWS V14.01,2013-02-20 10:06:00,
2013-02-20 05:11:00,23.0,-1.2,29.86,WSW,252,2.7,4.9,34,0.00,,---,0.00,VWS V14.01,2013-02-20 10:11:00,
2013-02-20 05:16:00,22.8,-1.3,29.86,SSW,211,7.6,7.6,34,0.00,,---,0.00,VWS V14.01,2013-02-20 10:16:00,
2013-02-20 05:21:00,22.8,-1.3,29.86,South,180,4.0,5.4,34,0.00,,---,0.00,VWS V14.01,2013-02-20 10:21:00,
2013-02-20 05:26:00,22.6,-1.5,29.86,SW,221,6.7,6.7,34,0.00,,---,0.00,VWS V14.01,2013-02-20 10:26:00,
2013-02-20 05:31:00,22.5,-1.6,29.86,SW,224,5.8,8.1,34,0.00,,---,0.00,VWS V14.01,2013-02-20 10:31:00,
2013-02-20 05:36:00,22.5,-1.6,29.86,SW,229,4.0,4.0,34,0.00,,---,0.00,VWS V14.01,2013-02-20 10:36:00,
2013-02-20 05:41:00,22.5,-1.6,29.86,East,98,4.9,5.8,34,0.00,,---,0.00,VWS V14.01,2013-02-20 10:41:00,
2013-02-20 05:46:00,22.5,-1.6,29.86,SSW,196,8.3,8.3,34,0.00,,---,0.00,VWS V14.01,2013-02-20 10:46:00,
2013-02-20 05:51:00,22.3,-1.8,29.86,SW,219,6.7,7.6,34,0.00,,---,0.00,VWS V14.01,2013-02-20 10:51:00,
2013-02-20 05:56:00,22.5,-1.6,29.86,SW,215,3.1,3.1,34,0.00,,---,0.00,VWS V14.01,2013-02-20 10:56:00,
2013-02-20 06:01:00,22.5,-1.6,29.86,SSW,207,3.6,3.6,34,0.00,,---,0.00,VWS V14.01,2013-02-20 11:01:00,
2013-02-20 06:06:00,22.5,-1.0,29.86,SW,216,4.9,5.4,35,0.00,,---,0.00,VWS V14.01,2013-02-20 11:06:00,
2013-02-20 06:11:00,22.5,-1.0,29.86,SSW,208,8.1,10.1,35,0.00,,---,0.00,VWS V14.01,2013-02-20 11:11:00,
2013-02-20 06:16:00,22.5,-1.0,29.86,SSW,194,5.4,6.3,35,0.00,,---,0.00,VWS V14.01,2013-02-20 11:16:00,
2013-02-20 06:21:00,22.3,-1.2,29.86,South,185,4.5,4.9,35,0.00,,---,0.00,VWS V14.01,2013-02-20 11:21:00,
2013-02-20 06:26:00,22.3,-0.6,29.86,SSW,192,5.8,8.1,36,0.00,,---,0.00,VWS V14.01,2013-02-20 11:26:00,
2013-02-20 06:31:00,22.3,-0.6,29.86,SSW,193,3.6,4.0,36,0.00,,---,0.00,VWS V14.01,2013-02-20 11:31:00,
2013-02-20 06:36:00,22.1,-0.8,29.86,SE,143,7.2,8.7,36,0.00,,---,0.00,VWS V14.01,2013-02-20 11:36:00,
2013-02-20 06:42:00,22.1,-0.2,29.89,SW,219,2.7,4.9,37,0.00,,---,0.00,VWS V14.01,2013-02-20 11:42:00,
2013-02-20 06:47:00,21.9,-0.3,29.89,South,179,3.1,3.1,37,0.00,,---,0.00,VWS V14.01,2013-02-20 11:47:00,
2013-02-20 06:52:00,21.9,0.2,29.89,SSE,154,3.6,5.4,38,0.00,,---,0.00,VWS V14.01,2013-02-20 11:52:00,
2013-02-20 06:57:00,21.9,0.2,29.89,NE,54,2.7,3.1,38,0.00,,---,0.00,VWS V14.01,2013-02-20 11:57:00,
2013-02-20 07:02:00,21.7,0.1,29.89,South,172,4.9,5.8,38,0.00,,---,0.00,VWS V14.01,2013-02-20 12:02:00,
2013-02-20 07:07:00,21.7,-0.5,29.89,SSW,211,4.0,4.9,37,0.00,,---,0.00,VWS V14.01,2013-02-20 12:07:00,
2013-02-20 07:30:00,21.7,-1.1,29.89,South,176,3.6,8.1,36,0.00,,---,0.00,VWS V14.01,2013-02-20 12:30:00,
2013-02-20 07:35:00,21.7,-1.1,29.89,SSW,211,4.0,5.8,36,0.00,,---,0.00,VWS V14.01,2013-02-20 12:35:00,
2013-02-20 07:40:00,21.7,-1.1,29.89,SSW,199,7.2,7.2,36,0.00,,---,0.00,VWS V14.01,2013-02-20 12:40:00,
2013-02-20 07:45:00,21.7,-1.1,29.89,SW,226,6.3,6.3,36,0.00,,---,0.00,VWS V14.01,2013-02-20 12:45:00,
2013-02-20 07:50:00,21.9,-0.3,29.89,SSW,209,3.6,5.4,37,0.00,,---,0.00,VWS V14.01,2013-02-20 12:50:00,
2013-02-20 07:55:00,21.9,-0.3,29.89,SW,227,2.7,6.3,37,0.00,,---,0.00,VWS V14.01,2013-02-20 12:55:00,
2013-02-20 08:00:00,21.9,-0.3,29.92,WSW,238,8.7,8.7,37,0.00,,---,0.00,VWS V14.01,2013-02-20 13:00:00,
2013-02-20 08:05:00,22.1,-0.2,29.92,WSW,253,4.9,5.8,37,0.00,,---,0.00,VWS V14.01,2013-02-20 13:05:00,
2013-02-20 08:10:00,22.1,0.4,29.92,SSE,149,4.9,8.1,38,0.00,,---,0.00,VWS V14.01,2013-02-20 13:10:00,
2013-02-20 08:15:00,22.1,0.4,29.92,SSE,164,2.7,3.6,38,0.00,,---,0.00,VWS V14.01,2013-02-20 13:15:00,
2013-02-20 08:20:00,22.3,0.5,29.92,SW,219,3.1,3.6,38,0.00,,---,0.00,VWS V14.01,2013-02-20 13:20:00,
2013-02-20 08:25:00,22.3,0.5,29.92,SW,216,4.0,4.0,38,0.00,,---,0.00,VWS V14.01,2013-02-20 13:25:00,
2013-02-20 08:30:00,22.3,0.5,29.92,SSE,158,5.4,5.4,38,0.00,,---,0.00,VWS V14.01,2013-02-20 13:30:00,
2013-02-20 08:35:00,22.5,0.7,29.92,SW,233,11.0,11.0,38,0.00,,---,0.00,VWS V14.01,2013-02-20 13:35:00,
2013-02-20 08:40:00,22.3,0.5,29.92,WSW,237,5.8,8.3,38,0.00,,---,0.00,VWS V14.01,2013-02-20 13:40:00,
2013-02-20 08:45:00,22.3,0.5,29.92,SSW,210,5.8,5.8,38,0.00,,---,0.00,VWS V14.01,2013-02-20 13:45:00,
2013-02-20 08:50:00,22.3,0.5,29.92,South,187,3.6,4.0,38,0.00,,---,0.00,VWS V14.01,2013-02-20 13:50:00,
2013-02-20 08:55:00,22.3,0.5,29.92,SW,214,7.6,7.6,38,0.00,,---,0.00,VWS V14.01,2013-02-20 13:55:00,
2013-02-20 09:00:00,22.1,-0.2,29.92,SSW,206,5.4,5.8,37,0.00,,---,0.00,VWS V14.01,2013-02-20 14:00:00,
2013-02-20 09:05:00,22.1,0.4,29.92,WSW,250,3.6,3.6,38,0.00,,---,0.00,VWS V14.01,2013-02-20 14:05:00,
2013-02-20 09:10:00,22.3,0.5,29.92,SSW,194,5.4,6.3,38,0.00,,---,0.00,VWS V14.01,2013-02-20 14:10:00,
2013-02-20 09:15:00,22.5,0.1,29.89,SW,223,5.8,8.1,37,0.00,,---,0.00,VWS V14.01,2013-02-20 14:15:00,
2013-02-20 09:20:00,22.5,0.1,29.89,SW,218,8.1,13.6,37,0.00,,---,0.00,VWS V14.01,2013-02-20 14:20:00,
2013-02-20 09:25:00,22.5,-0.4,29.89,SW,226,8.1,10.5,36,0.00,,---,0.00,VWS V14.01,2013-02-20 14:25:00,
2013-02-20 09:30:00,22.6,0.3,29.92,SW,222,8.1,8.7,37,0.00,,---,0.00,VWS V14.01,2013-02-20 14:30:00,
2013-02-20 09:35:00,22.6,-0.3,29.92,South,177,4.0,5.4,36,0.00,,---,0.00,VWS V14.01,2013-02-20 14:35:00,
2013-02-20 09:40:00,22.8,-0.1,29.92,SSW,194,4.0,5.8,36,0.00,,---,0.00,VWS V14.01,2013-02-20 14:40:00,
2013-02-20 09:45:00,23.0,0.0,29.92,SW,215,10.5,10.5,36,0.00,,---,0.00,VWS V14.01,2013-02-20 14:45:00,
2013-02-20 09:50:00,23.0,0.0,29.92,SSW,198,8.7,8.7,36,0.00,,---,0.00,VWS V14.01,2013-02-20 14:50:00,
2013-02-20 09:55:00,23.2,-0.4,29.92,WSW,245,12.3,13.6,35,0.00,,---,0.00,VWS V14.01,2013-02-20 14:55:00,
2013-02-20 10:00:00,23.4,-0.2,29.92,SSW,192,6.3,10.1,35,0.00,,---,0.00,VWS V14.01,2013-02-20 15:00:00,
2013-02-20 10:05:00,23.7,-0.5,29.92,South,189,11.0,11.4,34,0.00,,---,0.00,VWS V14.01,2013-02-20 15:05:00,
2013-02-20 10:10:00,23.9,-0.4,29.92,SW,221,7.6,10.1,34,0.00,,---,0.00,VWS V14.01,2013-02-20 15:10:00,
2013-02-20 10:15:00,24.1,-0.2,29.92,South,172,5.8,10.1,34,0.00,,---,0.00,VWS V14.01,2013-02-20 15:15:00,
2013-02-20 10:20:00,24.3,-0.1,29.92,SSW,197,8.7,8.7,34,0.00,,---,0.00,VWS V14.01,2013-02-20 15:20:00,
2013-02-20 10:25:00,24.4,0.1,29.92,SSW,192,13.2,13.6,34,0.00,,---,0.00,VWS V14.01,2013-02-20 15:25:00,
2013-02-20 10:30:00,24.6,0.3,29.92,SSW,193,6.3,8.3,34,0.00,,---,0.00,VWS V14.01,2013-02-20 15:30:00,
2013-02-20 10:36:00,24.8,0.4,29.92,SSW,200,8.1,10.1,34,0.00,,---,0.00,VWS V14.01,2013-02-20 15:36:00,
2013-02-20 10:41:00,25.2,0.1,29.92,SSW,203,4.0,6.3,33,0.00,,---,0.00,VWS V14.01,2013-02-20 15:41:00,
2013-02-20 10:46:00,25.7,0.6,29.92,WSW,246,8.3,8.7,33,0.00,,---,0.00,VWS V14.01,2013-02-20 15:46:00,
2013-02-20 10:51:00,26.1,0.9,29.92,SW,231,6.3,10.1,33,0.00,,---,0.00,VWS V14.01,2013-02-20 15:51:00,
2013-02-20 10:56:00,26.1,0.9,29.92,South,184,9.6,10.5,33,0.00,,---,0.00,VWS V14.01,2013-02-20 15:56:00,
2013-02-20 11:01:00,25.9,0.8,29.92,SW,225,8.7,8.7,33,0.00,,---,0.00,VWS V14.01,2013-02-20 16:01:00,
2013-02-20 11:06:00,26.1,0.9,29.92,SW,223,4.0,7.2,33,0.00,,---,0.00,VWS V14.01,2013-02-20 16:06:00,
2013-02-20 11:11:00,26.1,0.9,29.92,SW,218,8.7,10.1,33,0.00,,---,0.00,VWS V14.01,2013-02-20 16:11:00,
2013-02-20 11:16:00,26.4,1.2,29.92,SSW,199,5.4,8.3,33,0.00,,---,0.00,VWS V14.01,2013-02-20 16:16:00,
2013-02-20 11:21:00,26.6,1.4,29.92,SSW,203,7.6,10.5,33,0.00,,---,0.00,VWS V14.01,2013-02-20 16:21:00,
2013-02-20 11:26:00,26.8,0.9,29.92,SW,217,5.8,8.7,32,0.00,,---,0.00,VWS V14.01,2013-02-20 16:26:00,
2013-02-20 11:31:00,27.3,1.4,29.92,SSE,153,5.8,10.5,32,0.00,,---,0.00,VWS V14.01,2013-02-20 16:31:00,
2013-02-20 11:36:00,27.5,1.5,29.92,WSW,246,7.6,12.8,32,0.00,,---,0.00,VWS V14.01,2013-02-20 16:36:00,
2013-02-20 11:41:00,27.7,1.7,29.92,SSW,199,6.3,13.2,32,0.00,,---,0.00,VWS V14.01,2013-02-20 16:41:00,
2013-02-20 11:46:00,27.5,1.5,29.92,SSW,198,11.0,12.8,32,0.00,,---,0.00,VWS V14.01,2013-02-20 16:46:00,
2013-02-20 11:51:00,27.5,1.5,29.92,WSW,243,6.3,6.3,32,0.00,,---,0.00,VWS V14.01,2013-02-20 16:51:00,
2013-02-20 11:56:00,27.3,1.4,29.92,SW,217,10.1,10.1,32,0.00,,---,0.00,VWS V14.01,2013-02-20 16:56:00,
2013-02-20 12:01:00,27.5,1.5,29.92,East,83,8.1,8.1,32,0.00,,---,0.00,VWS V14.01,2013-02-20 17:01:00,
2013-02-20 12:06:00,27.9,1.8,29.92,SW,219,4.9,8.3,32,0.00,,---,0.00,VWS V14.01,2013-02-20 17:06:00,
2013-02-20 12:11:00,28.0,2.0,29.92,SSW,193,7.6,8.3,32,0.00,,---,0.00,VWS V14.01,2013-02-20 17:11:00,
2013-02-20 12:16:00,28.2,2.2,29.92,SW,226,5.4,9.6,32,0.00,,---,0.00,VWS V14.01,2013-02-20 17:16:00,
2013-02-20 12:21:00,28.2,2.2,29.92,SSW,193,8.7,8.7,32,0.00,,---,0.00,VWS V14.01,2013-02-20 17:21:00,
2013-02-20 12:26:00,28.4,2.3,29.92,SSW,197,9.6,15.0,32,0.00,,---,0.00,VWS V14.01,2013-02-20 17:26:00,
2013-02-20 12:31:00,28.6,1.8,29.92,South,186,7.6,10.5,31,0.00,,---,0.00,VWS V14.01,2013-02-20 17:31:00,
2013-02-20 12:36:00,28.6,1.8,29.92,SW,222,6.3,8.3,31,0.00,,---,0.00,VWS V14.01,2013-02-20 17:36:00,
2013-02-20 12:41:00,29.3,2.4,29.92,SSW,192,5.8,6.3,31,0.00,,---,0.00,VWS V14.01,2013-02-20 17:41:00,
2013-02-20 12:46:00,30.2,3.2,29.92,WSW,249,12.8,12.8,31,0.00,,---,0.00,VWS V14.01,2013-02-20 17:46:00,
2013-02-20 12:51:00,30.0,3.1,29.92,WSW,251,17.0,17.0,31,0.00,,---,0.00,VWS V14.01,2013-02-20 17:51:00,
2013-02-20 12:56:00,29.8,2.9,29.92,South,180,4.9,4.9,31,0.00,,---,0.00,VWS V14.01,2013-02-20 17:56:00,
2013-02-20 13:01:00,30.4,3.4,29.92,SW,214,15.4,15.4,31,0.00,,---,0.00,VWS V14.01,2013-02-20 18:01:00,
2013-02-20 13:06:00,30.6,3.5,29.92,South,177,6.3,7.6,31,0.00,,---,0.00,VWS V14.01,2013-02-20 18:06:00,
2013-02-20 13:11:00,31.1,4.0,29.92,South,170,7.6,13.2,31,0.00,,---,0.00,VWS V14.01,2013-02-20 18:11:00,
2013-02-20 13:16:00,30.6,3.5,29.92,South,177,8.3,8.3,31,0.00,,---,0.00,VWS V14.01,2013-02-20 18:16:00,
2013-02-20 13:21:00,30.7,3.7,29.92,SSW,213,6.3,6.3,31,0.00,,---,0.00,VWS V14.01,2013-02-20 18:21:00,
2013-02-20 13:26:00,31.5,4.3,29.92,SW,226,7.6,8.3,31,0.00,,---,0.00,VWS V14.01,2013-02-20 18:26:00,
2013-02-20 13:31:00,32.2,5.0,29.92,SSE,155,6.3,6.3,31,0.00,,---,0.00,VWS V14.01,2013-02-20 18:31:00,
2013-02-20 13:37:00,33.1,5.0,29.92,South,169,7.6,10.5,30,0.00,,---,0.00,VWS V14.01,2013-02-20 18:37:00,
2013-02-20 13:42:00,33.1,5.0,29.92,South,177,6.3,10.1,30,0.00,,---,0.00,VWS V14.01,2013-02-20 18:42:00,
2013-02-20 13:47:00,32.5,4.6,29.92,South,179,7.6,8.7,30,0.00,,---,0.00,VWS V14.01,2013-02-20 18:47:00,
2013-02-20 13:52:00,32.7,5.4,29.92,SW,225,6.3,6.3,31,0.00,,---,0.00,VWS V14.01,2013-02-20 18:52:00,
2013-02-20 13:57:00,33.3,5.2,29.92,SW,236,6.7,7.6,30,0.00,,---,0.00,VWS V14.01,2013-02-20 18:57:00,
2013-02-20 14:02:00,32.9,4.9,29.92,SW,217,5.4,7.6,30,0.00,,---,0.00,VWS V14.01,2013-02-20 19:02:00,
2013-02-20 14:07:00,32.2,4.2,29.92,SW,230,12.8,12.8,30,0.00,,---,0.00,VWS V14.01,2013-02-20 19:07:00,
2013-02-20 14:12:00,31.8,3.9,29.92,SSW,200,8.1,13.2,30,0.00,,---,0.00,VWS V14.01,2013-02-20 19:12:00,
2013-02-20 14:17:00,31.8,3.9,29.92,SSW,194,5.4,8.3,30,0.00,,---,0.00,VWS V14.01,2013-02-20 19:17:00,
2013-02-20 14:22:00,32.2,4.2,29.92,SSW,210,6.3,10.5,30,0.00,,---,0.00,VWS V14.01,2013-02-20 19:22:00,
2013-02-20 14:27:00,31.5,3.6,29.92,WSW,249,15.4,15.4,30,0.00,,---,0.00,VWS V14.01,2013-02-20 19:27:00,
2013-02-20 14:32:00,31.1,3.3,29.92,West,263,10.5,13.2,30,0.00,,---,0.00,VWS V14.01,2013-02-20 19:32:00,
2013-02-20 14:37:00,30.9,3.1,29.92,SSE,160,8.3,8.3,30,0.00,,---,0.00,VWS V14.01,2013-02-20 19:37:00,
2013-02-20 14:42:00,31.1,3.3,29.92,SW,215,6.3,6.3,30,0.00,,---,0.00,VWS V14.01,2013-02-20 19:42:00,
2013-02-20 14:47:00,31.3,3.5,29.92,East,87,3.6,7.6,30,0.00,,---,0.00,VWS V14.01,2013-02-20 19:47:00,
2013-02-20 14:52:00,32.5,4.6,29.92,ESE,106,3.6,4.0,30,0.00,,---,0.00,VWS V14.01,2013-02-20 19:52:00,
2013-02-20 14:57:00,33.1,5.0,29.92,SSW,205,8.7,8.7,30,0.00,,---,0.00,VWS V14.01,2013-02-20 19:57:00,
2013-02-20 15:02:00,32.9,4.9,29.92,South,180,5.4,5.4,30,0.00,,---,0.00,VWS V14.01,2013-02-20 20:02:00,
2013-02-20 15:07:00,33.1,5.0,29.92,South,178,8.1,8.1,30,0.00,,---,0.00,VWS V14.01,2013-02-20 20:07:00,
2013-02-20 15:12:00,33.3,5.2,29.92,SSW,204,4.5,5.4,30,0.00,,---,0.00,VWS V14.01,2013-02-20 20:12:00,
2013-02-20 15:17:00,33.1,5.0,29.92,ESE,117,5.4,5.4,30,0.00,,---,0.00,VWS V14.01,2013-02-20 20:17:00,
2013-02-20 15:22:00,33.3,5.2,29.92,SSW,192,6.3,8.1,30,0.00,,---,0.00,VWS V14.01,2013-02-20 20:22:00,
2013-02-20 15:27:00,33.3,5.2,29.92,West,260,5.4,8.3,30,0.00,,---,0.00,VWS V14.01,2013-02-20 20:27:00,
2013-02-20 15:32:00,33.4,5.3,29.92,SSW,194,3.1,3.1,30,0.00,,---,0.00,VWS V14.01,2013-02-20 20:32:00,
2013-02-20 15:37:00,33.6,5.5,29.92,SSW,200,8.3,8.3,30,0.00,,---,0.00,VWS V14.01,2013-02-20 20:37:00,
2013-02-20 15:42:00,33.3,5.2,29.92,South,182,3.1,4.0,30,0.00,,---,0.00,VWS V14.01,2013-02-20 20:42:00,
2013-02-20 15:47:00,33.6,5.5,29.92,ESE,108,6.3,8.3,30,0.00,,---,0.00,VWS V14.01,2013-02-20 20:47:00,
2013-02-20 15:52:00,32.9,4.9,29.92,SSW,204,5.4,7.6,30,0.00,,---,0.00,VWS V14.01,2013-02-20 20:52:00,
2013-02-20 15:57:00,32.5,4.6,29.92,ESE,116,5.8,6.3,30,0.00,,---,0.00,VWS V14.01,2013-02-20 20:57:00,
2013-02-20 16:02:00,32.5,4.6,29.92,SSE,162,9.6,10.1,30,0.00,,---,0.00,VWS V14.01,2013-02-20 21:02:00,
2013-02-20 16:07:00,31.6,3.8,29.92,SSW,204,5.8,5.8,30,0.00,,---,0.00,VWS V14.01,2013-02-20 21:07:00,
2013-02-20 16:13:00,32.2,4.2,29.92,SSW,196,4.0,5.4,30,0.00,,---,0.00,VWS V14.01,2013-02-20 21:13:00,
2013-02-20 16:18:00,32.4,4.4,29.92,WSW,244,5.4,6.3,30,0.00,,---,0.00,VWS V14.01,2013-02-20 21:18:00,
2013-02-20 16:23:00,32.5,4.6,29.92,SW,222,5.4,8.1,30,0.00,,---,0.00,VWS V14.01,2013-02-20 21:23:00,
2013-02-20 16:28:00,32.7,4.7,29.95,SW,223,10.5,10.5,30,0.00,,---,0.00,VWS V14.01,2013-02-20 21:28:00,
2013-02-20 16:33:00,32.7,4.7,29.95,SSW,197,8.7,10.5,30,0.00,,---,0.00,VWS V14.01,2013-02-20 21:33:00,
2013-02-20 16:38:00,32.5,4.6,29.95,SSW,196,6.3,8.1,30,0.00,,---,0.00,VWS V14.01,2013-02-20 21:38:00,
2013-02-20 16:43:00,32.2,4.2,29.95,South,179,5.8,5.8,30,0.00,,---,0.00,VWS V14.01,2013-02-20 21:43:00,
2013-02-20 16:48:00,31.8,3.9,29.95,SSW,206,8.3,11.0,30,0.00,,---,0.00,VWS V14.01,2013-02-20 21:48:00,
2013-02-20 16:53:00,31.3,3.5,29.95,South,183,8.7,10.5,30,0.00,,---,0.00,VWS V14.01,2013-02-20 21:53:00,
2013-02-20 16:58:00,31.1,3.3,29.95,SW,220,8.1,12.8,30,0.00,,---,0.00,VWS V14.01,2013-02-20 21:58:00,
2013-02-20 17:03:00,30.9,3.1,29.95,SSW,198,8.7,15.4,30,0.00,,---,0.00,VWS V14.01,2013-02-20 22:03:00,
2013-02-20 17:08:00,30.6,2.8,29.95,SSW,198,11.0,11.0,30,0.00,,---,0.00,VWS V14.01,2013-02-20 22:08:00,
2013-02-20 17:13:00,30.4,2.7,29.95,South,172,11.0,12.8,30,0.00,,---,0.00,VWS V14.01,2013-02-20 22:13:00,
2013-02-20 17:18:00,30.2,2.5,29.95,SW,221,10.1,10.1,30,0.00,,---,0.00,VWS V14.01,2013-02-20 22:18:00,
2013-02-20 17:23:00,29.7,2.0,29.95,South,173,5.4,8.3,30,0.00,,---,0.00,VWS V14.01,2013-02-20 22:23:00,
2013-02-20 17:28:00,29.3,1.7,29.95,SW,217,10.5,10.5,30,0.00,,---,0.00,VWS V14.01,2013-02-20 22:28:00,
2013-02-20 17:33:00,28.9,1.4,29.95,SW,224,5.8,6.3,30,0.00,,---,0.00,VWS V14.01,2013-02-20 22:33:00,
2013-02-20 17:38:00,28.6,1.1,29.95,SW,229,9.6,9.6,30,0.00,,---,0.00,VWS V14.01,2013-02-20 22:38:00,
2013-02-20 17:43:00,28.0,1.3,29.95,SSW,209,5.4,5.4,31,0.00,,---,0.00,VWS V14.01,2013-02-20 22:43:00,
2013-02-20 17:48:00,27.7,1.0,29.95,South,175,3.1,4.0,31,0.00,,---,0.00,VWS V14.01,2013-02-20 22:48:00,
2013-02-20 17:53:00,27.5,0.8,29.95,SW,231,5.8,5.8,31,0.00,,---,0.00,VWS V14.01,2013-02-20 22:53:00,
2013-02-20 17:58:00,27.0,0.4,29.95,SW,228,3.6,5.8,31,0.00,,---,0.00,VWS V14.01,2013-02-20 22:58:00,
2013-02-20 18:03:00,26.6,0.7,29.95,SW,229,5.8,5.8,32,0.00,,---,0.00,VWS V14.01,2013-02-20 23:03:00,
2013-02-20 18:08:00,26.2,0.4,29.95,SSW,209,4.0,4.0,32,0.00,,---,0.00,VWS V14.01,2013-02-20 23:08:00,
2013-02-20 18:13:00,26.1,0.2,29.98,SSE,160,5.4,5.4,32,0.00,,---,0.00,VWS V14.01,2013-02-20 23:13:00,
2013-02-20 18:18:00,25.9,0.1,29.98,SW,220,2.7,4.5,32,0.00,,---,0.00,VWS V14.01,2013-02-20 23:18:00,
2013-02-20 18:23:00,25.7,-0.1,29.98,South,178,3.1,3.1,32,0.00,,---,0.00,VWS V14.01,2013-02-20 23:23:00,
2013-02-20 18:28:00,25.3,-0.4,29.98,WSW,251,2.2,2.7,32,0.00,,---,0.00,VWS V14.01,2013-02-20 23:28:00,
2013-02-20 18:33:00,25.2,-0.5,29.98,SSW,199,0.0,0.0,32,0.00,,---,0.00,VWS V14.01,2013-02-20 23:33:00,
2013-02-20 18:38:00,25.0,-0.7,29.98,SSW,196,3.6,3.6,32,0.00,,---,0.00,VWS V14.01,2013-02-20 23:38:00,
2013-02-20 18:43:00,24.8,-0.9,29.98,South,175,5.4,5.4,32,0.00,,---,0.00,VWS V14.01,2013-02-20 23:43:00,
2013-02-20 18:48:00,24.8,-0.9,29.98,SSW,204,4.9,4.9,32,0.00,,---,0.00,VWS V14.01,2013-02-20 23:48:00,
2013-02-20 18:53:00,24.6,-0.4,29.98,SSW,200,3.1,3.6,33,0.00,,---,0.00,VWS V14.01,2013-02-20 23:53:00,
2013-02-20 18:58:00,24.4,-0.5,29.98,West,271,0.0,0.0,33,0.00,,---,0.00,VWS V14.01,2013-02-20 23:58:00,
2013-02-20 19:03:00,24.4,-0.5,29.98,WSW,257,3.6,4.0,33,0.00,,---,0.00,VWS V14.01,2013-02-21 00:03:00,
2013-02-20 19:09:00,24.4,-0.5,29.98,South,180,4.9,5.8,33,0.00,,---,0.00,VWS V14.01,2013-02-21 00:09:00,
2013-02-20 19:14:00,24.3,-0.7,30.01,SW,234,2.7,3.6,33,0.00,,---,0.00,VWS V14.01,2013-02-21 00:14:00,
2013-02-20 19:19:00,24.1,-0.9,30.01,SW,224,4.0,4.0,33,0.00,,---,0.00,VWS V14.01,2013-02-21 00:19:00,
2013-02-20 19:24:00,23.9,-1.0,30.01,WSW,241,2.7,4.0,33,0.00,,---,0.00,VWS V14.01,2013-02-21 00:24:00,
2013-02-20 19:29:00,23.7,-1.2,30.01,SW,217,2.7,2.7,33,0.00,,---,0.00,VWS V14.01,2013-02-21 00:29:00,
2013-02-20 19:34:00,23.5,-1.3,30.01,SW,227,0.0,0.0,33,0.00,,---,0.00,VWS V14.01,2013-02-21 00:34:00,
2013-02-20 19:39:00,23.4,-1.5,30.01,WSW,253,3.6,3.6,33,0.00,,---,0.00,VWS V14.01,2013-02-21 00:39:00,
2013-02-20 19:44:00,23.2,-1.6,30.01,WSW,237,3.6,3.6,33,0.00,,---,0.00,VWS V14.01,2013-02-21 00:44:00,
2013-02-20 19:49:00,23.2,-1.0,30.01,SW,222,3.1,3.6,34,0.00,,---,0.00,VWS V14.01,2013-02-21 00:49:00,
2013-02-20 19:54:00,23.0,-1.2,30.01,SSW,213,5.4,5.4,34,0.00,,---,0.00,VWS V14.01,2013-02-21 00:54:00,
2013-02-20 19:59:00,23.0,-1.2,29.98,SW,226,3.1,3.1,34,0.00,,---,0.00,VWS V14.01,2013-02-21 00:59:00,
2013-02-20 20:04:00,23.0,-1.2,29.98,South,180,5.4,6.3,34,0.00,,---,0.00,VWS V14.01,2013-02-21 01:04:00,
2013-02-20 20:09:00,23.0,-1.2,29.98,SSW,209,3.1,3.1,34,0.00,,---,0.00,VWS V14.01,2013-02-21 01:09:00,
2013-02-20 20:14:00,22.8,-1.3,30.01,WNW,302,2.7,4.9,34,0.00,,---,0.00,VWS V14.01,2013-02-21 01:14:00,
2013-02-20 20:19:00,23.0,-1.2,30.01,SSW,211,3.1,3.1,34,0.00,,---,0.00,VWS V14.01,2013-02-21 01:19:00,
2013-02-20 20:24:00,22.8,-1.3,30.01,SSW,203,4.9,10.1,34,0.00,,---,0.00,VWS V14.01,2013-02-21 01:24:00,
2013-02-20 20:29:00,23.0,-1.2,30.01,South,176,2.2,2.7,34,0.00,,---,0.00,VWS V14.01,2013-02-21 01:29:00,
2013-02-20 20:34:00,22.8,-1.3,30.01,SSE,154,0.0,0.0,34,0.00,,---,0.00,VWS V14.01,2013-02-21 01:34:00,
2013-02-20 20:39:00,22.8,-1.3,30.01,West,265,0.0,3.1,34,0.00,,---,0.00,VWS V14.01,2013-02-21 01:39:00,
2013-02-20 20:44:00,22.6,-1.5,30.01,South,187,0.0,3.1,34,0.00,,---,0.00,VWS V14.01,2013-02-21 01:44:00,
2013-02-20 20:49:00,22.6,-1.5,30.01,ESE,116,2.2,2.2,34,0.00,,---,0.00,VWS V14.01,2013-02-21 01:49:00,
2013-02-20 20:55:00,22.6,-1.5,30.01,NE,46,2.2,3.1,34,0.00,,---,0.00,VWS V14.01,2013-02-21 01:55:00,
2013-02-20 21:00:00,22.6,-1.5,30.01,ENE,71,0.0,0.0,34,0.00,,---,0.00,VWS V14.01,2013-02-21 02:00:00,
2013-02-20 21:05:00,22.5,-1.0,30.01,WSW,239,2.7,2.7,35,0.00,,---,0.00,VWS V14.01,2013-02-21 02:05:00,
2013-02-20 21:10:00,22.5,-1.0,30.01,WSW,258,4.0,4.0,35,0.00,,---,0.00,VWS V14.01,2013-02-21 02:10:00,
2013-02-20 21:15:00,22.5,-1.6,30.01,WSW,251,2.2,2.2,34,0.00,,---,0.00,VWS V14.01,2013-02-21 02:15:00,
2013-02-20 21:20:00,22.5,-1.0,30.01,SW,225,2.7,3.6,35,0.00,,---,0.00,VWS V14.01,2013-02-21 02:20:00,
2013-02-20 21:25:00,22.3,-1.2,30.01,West,280,3.1,5.8,35,0.00,,---,0.00,VWS V14.01,2013-02-21 02:25:00,
2013-02-20 21:30:00,22.3,-1.2,30.01,WSW,243,2.7,3.1,35,0.00,,---,0.00,VWS V14.01,2013-02-21 02:30:00,
2013-02-20 21:35:00,22.3,-1.2,30.01,South,190,4.9,4.9,35,0.00,,---,0.00,VWS V14.01,2013-02-21 02:35:00,
2013-02-20 21:40:00,22.3,-1.2,30.01,SW,221,0.0,0.0,35,0.00,,---,0.00,VWS V14.01,2013-02-21 02:40:00,
2013-02-20 21:45:00,22.3,-1.2,30.01,West,263,0.0,2.7,35,0.00,,---,0.00,VWS V14.01,2013-02-21 02:45:00,
2013-02-20 21:50:00,21.9,-1.5,30.01,SW,231,0.0,0.0,35,0.00,,---,0.00,VWS V14.01,2013-02-21 02:50:00,
2013-02-20 21:55:00,21.9,-1.5,30.01,West,260,3.6,4.9,35,0.00,,---,0.00,VWS V14.01,2013-02-21 02:55:00,
2013-02-20 22:00:00,21.9,-0.9,30.01,West,260,0.0,0.0,36,0.00,,---,0.00,VWS V14.01,2013-02-21 03:00:00,
2013-02-20 22:05:00,21.7,-1.1,30.01,SSW,197,0.0,0.0,36,0.00,,---,0.00,VWS V14.01,2013-02-21 03:05:00,
2013-02-20 22:11:00,21.9,-0.9,30.01,SW,235,0.0,0.0,36,0.00,,---,0.00,VWS V14.01,2013-02-21 03:11:00,
2013-02-20 22:16:00,21.7,-1.1,30.01,South,174,3.6,4.0,36,0.00,,---,0.00,VWS V14.01,2013-02-21 03:16:00,
2013-02-20 22:21:00,21.7,-1.1,30.01,SW,214,2.7,2.7,36,0.00,,---,0.00,VWS V14.01,2013-02-21 03:21:00,
2013-02-20 22:26:00,21.7,-1.1,30.01,WSW,244,4.0,4.0,36,0.00,,---,0.00,VWS V14.01,2013-02-21 03:26:00,
2013-02-20 22:31:00,21.6,-1.2,30.01,SW,225,2.7,5.4,36,0.00,,---,0.00,VWS V14.01,2013-02-21 03:31:00,
2013-02-20 22:36:00,21.6,-1.2,30.01,SW,223,3.1,3.1,36,0.00,,---,0.00,VWS V14.01,2013-02-21 03:36:00,
2013-02-20 22:41:00,21.7,-1.1,30.01,WSW,248,4.0,4.9,36,0.00,,---,0.00,VWS V14.01,2013-02-21 03:41:00,
2013-02-20 22:46:00,21.9,-0.9,30.01,South,181,4.0,4.0,36,0.00,,---,0.00,VWS V14.01,2013-02-21 03:46:00,
2013-02-20 22:51:00,21.9,-0.9,30.01,SSW,199,5.8,5.8,36,0.00,,---,0.00,VWS V14.01,2013-02-21 03:51:00,
2013-02-20 22:56:00,21.9,-0.9,30.01,South,173,3.1,3.1,36,0.00,,---,0.00,VWS V14.01,2013-02-21 03:56:00,
2013-02-20 23:01:00,21.9,-0.9,30.01,SW,226,2.7,2.7,36,0.00,,---,0.00,VWS V14.01,2013-02-21 04:01:00,
2013-02-20 23:06:00,21.9,-0.9,30.01,SSE,151,3.1,3.1,36,0.00,,---,0.00,VWS V14.01,2013-02-21 04:06:00,
2013-02-20 23:11:00,21.9,-0.9,30.01,SW,221,6.3,6.3,36,0.00,,---,0.00,VWS V14.01,2013-02-21 04:11:00,
2013-02-20 23:16:00,21.7,-1.1,30.01,South,181,5.8,6.3,36,0.00,,---,0.00,VWS V14.01,2013-02-21 04:16:00,
2013-02-20 23:21:00,21.7,-1.1,30.01,WNW,292,3.1,4.0,36,0.00,,---,0.00,VWS V14.01,2013-02-21 04:21:00,
2013-02-20 23:26:00,21.7,-1.1,30.01,South,173,3.1,4.0,36,0.00,,---,0.00,VWS V14.01,2013-02-21 04:26:00,
2013-02-20 23:31:00,21.6,-1.2,30.01,South,184,5.8,5.8,36,0.00,,---,0.00,VWS V14.01,2013-02-21 04:31:00,
2013-02-20 23:36:00,21.6,-1.2,30.01,South,180,3.1,3.1,36,0.00,,---,0.00,VWS V14.01,2013-02-21 04:36:00,
2013-02-20 23:42:00,21.6,-1.2,30.01,SSE,163,3.6,3.6,36,0.00,,---,0.00,VWS V14.01,2013-02-21 04:42:00,
2013-02-20 23:47:00,21.4,-1.4,30.01,SW,224,0.0,0.0,36,0.00,,---,0.00,VWS V14.01,2013-02-21 04:47:00,
2013-02-20 23:52:00,21.2,-1.6,30.01,SW,224,0.0,0.0,36,0.00,,---,0.00,VWS V14.01,2013-02-21 04:52:00,
2013-02-20 23:57:00,21.2,-1.0,30.01,SSW,192,4.0,4.0,37,0.00,,---,0.00,VWS V14.01,2013-02-21 04:57:00,